Time,TemperatureF,DewpointF,PressureIn,WindDirection,WindDirectionDegrees,WindSpeedMPH,WindSpeedGustMPH,Humidity,HourlyPrecipIn,Conditions,Clouds,dailyrainin,SoftwareType,DateUTC
2013-05-16 00:01:00,56.5,47.2,29.47,NW,315,0.0,1.0,71,0.00,,,0.00,VWS V14.00,2013-05-16 04:01:00,
2013-05-16 00:02:00,56.5,47.2,29.47,NW,315,0.0,1.0,71,0.00,,,0.00,VWS V14.00,2013-05-16 04:02:00,
2013-05-16 00:07:00,56.5,47.2,29.47,SW,225,0.0,1.0,71,0.00,,,0.00,VWS V14.00,2013-05-16 04:07:00,
2013-05-16 00:12:00,56.3,47.0,29.47,NW,315,0.0,1.0,71,0.00,,,0.00,VWS V14.00,2013-05-16 04:12:00,
2013-05-16 00:17:00,56.3,47.0,29.47,WSW,248,0.0,1.0,71,0.00,,,0.00,VWS V14.00,2013-05-16 04:17:00,
2013-05-16 00:22:00,56.3,47.0,29.47,SW,225,0.0,1.0,71,0.00,,,0.00,VWS V14.00,2013-05-16 04:22:00,
2013-05-16 00:27:00,56.1,46.9,29.44,WNW,292,0.0,1.0,71,0.00,,,0.00,VWS V14.00,2013-05-16 04:27:00,
2013-05-16 00:32:00,56.1,47.2,29.44,WSW,248,0.0,1.0,72,0.00,,,0.00,VWS V14.00,2013-05-16 04:32:00,
2013-05-16 00:37:00,55.9,47.1,29.44,SSW,202,0.0,1.0,72,0.00,,,0.00,VWS V14.00,2013-05-16 04:37:00,
2013-05-16 00:42:00,55.9,47.1,29.44,WSW,248,0.0,1.0,72,0.00,,,0.00,VWS V14.00,2013-05-16 04:42:00,
2013-05-16 00:47:00,55.8,46.9,29.44,North,0,0.0,1.0,72,0.00,,,0.00,VWS V14.00,2013-05-16 04:47:00,
2013-05-16 00:52:00,55.8,46.9,29.44,NW,315,0.0,1.0,72,0.00,,,0.00,VWS V14.00,2013-05-16 04:52:00,
2013-05-16 00:57:00,55.6,46.7,29.44,SW,225,0.0,1.0,72,0.00,,,0.00,VWS V14.00,2013-05-16 04:57:00,
2013-05-16 01:02:00,55.6,46.7,29.44,WSW,248,0.0,1.0,72,0.00,,,0.00,VWS V14.00,2013-05-16 05:02:00,
2013-05-16 01:07:00,55.6,46.7,29.44,NNW,338,0.0,1.0,72,0.00,,,0.00,VWS V14.00,2013-05-16 05:07:00,
2013-05-16 01:12:00,55.4,46.5,29.44,WSW,248,0.0,1.0,72,0.00,,,0.00,VWS V14.00,2013-05-16 05:12:00,
2013-05-16 01:17:00,55.2,46.7,29.44,NW,315,0.0,1.0,73,0.00,,,0.00,VWS V14.00,2013-05-16 05:17:00,
2013-05-16 01:22:00,55.2,46.7,29.44,WSW,248,0.0,1.0,73,0.00,,,0.00,VWS V14.00,2013-05-16 05:22:00,
2013-05-16 01:27:00,55.0,46.5,29.44,WNW,292,0.0,1.0,73,0.00,,,0.00,VWS V14.00,2013-05-16 05:27:00,
2013-05-16 01:32:00,55.0,46.5,29.44,West,270,0.0,1.0,73,0.00,,,0.00,VWS V14.00,2013-05-16 05:32:00,
2013-05-16 01:37:00,54.9,46.4,29.44,WSW,248,0.0,1.0,73,0.00,,,0.00,VWS V14.00,2013-05-16 05:37:00,
2013-05-16 01:41:00,54.7,46.6,29.44,NNW,338,0.0,1.0,74,0.00,,,0.00,VWS V14.00,2013-05-16 05:41:00,
2013-05-16 01:46:00,54.7,46.6,29.44,SW,225,0.0,1.0,74,0.00,,,0.00,VWS V14.00,2013-05-16 05:46:00,
2013-05-16 01:51:00,54.7,46.6,29.44,NNE,22,0.0,1.0,74,0.00,,,0.00,VWS V14.00,2013-05-16 05:51:00,
2013-05-16 01:56:00,54.5,46.4,29.44,SW,225,0.0,1.0,74,0.00,,,0.00,VWS V14.00,2013-05-16 05:56:00,
2013-05-16 02:01:00,54.5,46.8,29.44,NW,315,0.0,1.0,75,0.00,,,0.00,VWS V14.00,2013-05-16 06:01:00,
2013-05-16 02:06:00,54.5,46.8,29.44,WSW,248,0.0,1.0,75,0.00,,,0.00,VWS V14.00,2013-05-16 06:06:00,
2013-05-16 02:11:00,54.5,46.4,29.44,SW,225,0.0,1.0,74,0.00,,,0.00,VWS V14.00,2013-05-16 06:11:00,
2013-05-16 02:16:00,54.3,46.6,29.44,SW,225,0.0,1.0,75,0.00,,,0.00,VWS V14.00,2013-05-16 06:16:00,
2013-05-16 02:21:00,54.3,46.6,29.44,SW,225,0.0,1.0,75,0.00,,,0.00,VWS V14.00,2013-05-16 06:21:00,
2013-05-16 02:26:00,54.3,46.6,29.44,ENE,68,0.0,1.0,75,0.00,,,0.00,VWS V14.00,2013-05-16 06:26:00,
2013-05-16 02:31:00,54.1,46.4,29.44,NW,315,0.0,1.0,75,0.00,,,0.00,VWS V14.00,2013-05-16 06:31:00,
2013-05-16 02:36:00,54.1,46.4,29.44,WSW,248,0.0,1.0,75,0.00,,,0.00,VWS V14.00,2013-05-16 06:36:00,
2013-05-16 02:41:00,54.0,46.2,29.44,WSW,248,0.0,1.0,75,0.00,,,0.00,VWS V14.00,2013-05-16 06:41:00,
2013-05-16 02:46:00,54.0,46.2,29.44,WNW,292,0.0,1.0,75,0.00,,,0.00,VWS V14.00,2013-05-16 06:46:00,
2013-05-16 02:51:00,54.0,46.2,29.44,NNW,338,0.0,1.0,75,0.00,,,0.00,VWS V14.00,2013-05-16 06:51:00,
2013-05-16 02:56:00,54.0,46.2,29.44,SW,225,0.0,1.0,75,0.00,,,0.00,VWS V14.00,2013-05-16 06:56:00,
2013-05-16 03:01:00,53.8,46.0,29.44,SSW,202,0.0,1.0,75,0.00,,,0.00,VWS V14.00,2013-05-16 07:01:00,
2013-05-16 03:06:00,53.8,46.0,29.44,West,270,0.0,1.0,75,0.00,,,0.00,VWS V14.00,2013-05-16 07:06:00,
2013-05-16 03:11:00,53.6,45.9,29.44,WSW,248,0.0,1.0,75,0.00,,,0.00,VWS V14.00,2013-05-16 07:11:00,
2013-05-16 03:16:00,53.6,45.9,29.44,WNW,292,0.0,1.0,75,0.00,,,0.00,VWS V14.00,2013-05-16 07:16:00,
2013-05-16 03:21:00,53.6,45.9,29.44,WNW,292,0.0,1.0,75,0.00,,,0.00,VWS V14.00,2013-05-16 07:21:00,
2013-05-16 03:26:00,53.4,46.1,29.44,SW,225,0.0,1.0,76,0.00,,,0.00,VWS V14.00,2013-05-16 07:26:00,
2013-05-16 03:31:00,53.4,46.1,29.44,West,270,0.0,1.0,76,0.00,,,0.00,VWS V14.00,2013-05-16 07:31:00,
2013-05-16 03:36:00,53.2,45.9,29.44,WNW,292,0.0,1.0,76,0.00,,,0.00,VWS V14.00,2013-05-16 07:36:00,
2013-05-16 03:41:00,53.2,45.9,29.44,NW,315,0.0,1.0,76,0.00,,,0.00,VWS V14.00,2013-05-16 07:41:00,
2013-05-16 03:46:00,53.2,45.9,29.44,WNW,292,0.0,1.0,76,0.00,,,0.00,VWS V14.00,2013-05-16 07:46:00,
2013-05-16 03:51:00,53.2,45.9,29.44,WNW,292,0.0,1.0,76,0.00,,,0.00,VWS V14.00,2013-05-16 07:51:00,
2013-05-16 03:56:00,53.1,45.7,29.44,West,270,0.0,1.0,76,0.00,,,0.00,VWS V14.00,2013-05-16 07:56:00,
2013-05-16 04:01:00,53.1,45.7,29.44,West,270,0.0,1.0,76,0.00,,,0.00,VWS V14.00,2013-05-16 08:01:00,
2013-05-16 04:06:00,53.1,45.7,29.44,WNW,292,0.0,1.0,76,0.00,,,0.00,VWS V14.00,2013-05-16 08:06:00,
2013-05-16 04:11:00,53.1,45.7,29.44,West,270,0.0,1.0,76,0.00,,,0.00,VWS V14.00,2013-05-16 08:11:00,
2013-05-16 04:16:00,52.9,45.2,29.44,WSW,248,0.0,1.0,75,0.00,,,0.00,VWS V14.00,2013-05-16 08:16:00,
2013-05-16 04:21:00,52.9,45.2,29.44,West,270,0.0,1.0,75,0.00,,,0.00,VWS V14.00,2013-05-16 08:21:00,
2013-05-16 04:26:00,52.9,45.2,29.44,WSW,248,0.0,1.0,75,0.00,,,0.00,VWS V14.00,2013-05-16 08:26:00,
2013-05-16 04:31:00,52.7,45.0,29.44,WSW,248,0.0,1.0,75,0.00,,,0.00,VWS V14.00,2013-05-16 08:31:00,
2013-05-16 04:36:00,52.9,45.2,29.44,WSW,248,0.0,1.0,75,0.00,,,0.00,VWS V14.00,2013-05-16 08:36:00,
2013-05-16 04:41:00,52.9,45.2,29.44,SSW,202,0.0,1.0,75,0.00,,,0.00,VWS V14.00,2013-05-16 08:41:00,
2013-05-16 04:46:00,52.9,45.2,29.44,WSW,248,0.0,1.0,75,0.00,,,0.00,VWS V14.00,2013-05-16 08:46:00,
2013-05-16 04:51:00,52.9,45.2,29.44,WSW,248,0.0,1.0,75,0.00,,,0.00,VWS V14.00,2013-05-16 08:51:00,
2013-05-16 04:56:00,52.9,45.2,29.44,WNW,292,0.0,1.0,75,0.00,,,0.00,VWS V14.00,2013-05-16 08:56:00,
2013-05-16 05:01:00,53.1,45.0,29.44,South,180,0.0,1.0,74,0.00,,,0.00,VWS V14.00,2013-05-16 09:01:00,
2013-05-16 05:06:00,53.1,45.0,29.44,NW,315,0.0,1.0,74,0.00,,,0.00,VWS V14.00,2013-05-16 09:06:00,
2013-05-16 05:11:00,53.1,45.0,29.44,SW,225,0.0,1.0,74,0.00,,,0.00,VWS V14.00,2013-05-16 09:11:00,
2013-05-16 05:16:00,53.1,44.7,29.44,West,270,0.0,1.0,73,0.00,,,0.00,VWS V14.00,2013-05-16 09:16:00,
2013-05-16 05:21:00,53.1,44.7,29.44,WNW,292,0.0,1.0,73,0.00,,,0.00,VWS V14.00,2013-05-16 09:21:00,
2013-05-16 05:26:00,53.1,44.7,29.44,West,270,0.0,1.0,73,0.00,,,0.00,VWS V14.00,2013-05-16 09:26:00,
2013-05-16 05:31:00,53.1,44.7,29.44,NW,315,0.0,1.0,73,0.00,,,0.00,VWS V14.00,2013-05-16 09:31:00,
2013-05-16 05:36:00,53.1,44.3,29.44,NNW,338,0.0,1.0,72,0.00,,,0.00,VWS V14.00,2013-05-16 09:36:00,
2013-05-16 05:41:00,53.2,44.5,29.44,WSW,248,0.0,1.0,72,0.00,,,0.00,VWS V14.00,2013-05-16 09:41:00,
2013-05-16 05:46:00,53.6,44.1,29.44,West,270,0.0,1.0,70,0.00,,,0.00,VWS V14.00,2013-05-16 09:46:00,
2013-05-16 05:51:00,53.8,44.2,29.44,NNW,338,0.0,1.0,70,0.00,,,0.00,VWS V14.00,2013-05-16 09:51:00,
2013-05-16 05:56:00,54.0,44.0,29.44,NW,315,0.0,1.0,69,0.00,,,0.00,VWS V14.00,2013-05-16 09:56:00,
2013-05-16 06:01:00,54.1,43.8,29.44,WSW,248,0.0,1.0,68,0.00,,,0.00,VWS V14.00,2013-05-16 10:01:00,
2013-05-16 06:06:00,54.1,43.8,29.44,NE,45,0.0,1.0,68,0.00,,,0.00,VWS V14.00,2013-05-16 10:06:00,
2013-05-16 06:11:00,54.3,44.0,29.44,North,0,0.0,1.0,68,0.00,,,0.00,VWS V14.00,2013-05-16 10:11:00,
2013-05-16 06:16:00,54.5,43.8,29.44,WSW,248,0.0,1.0,67,0.00,,,0.00,VWS V14.00,2013-05-16 10:16:00,
2013-05-16 06:21:00,54.7,44.0,29.44,ESE,112,0.0,1.0,67,0.00,,,0.00,VWS V14.00,2013-05-16 10:21:00,
2013-05-16 06:26:00,54.9,43.7,29.44,West,270,0.0,1.0,66,0.00,,,0.00,VWS V14.00,2013-05-16 10:26:00,
2013-05-16 06:31:00,55.0,43.5,29.44,NW,315,0.0,1.0,65,0.00,,,0.00,VWS V14.00,2013-05-16 10:31:00,
2013-05-16 06:36:00,55.4,43.8,29.44,SSW,202,0.0,1.0,65,0.00,,,0.00,VWS V14.00,2013-05-16 10:36:00,
2013-05-16 06:41:00,55.8,43.8,29.44,ENE,68,0.0,1.0,64,0.00,,,0.00,VWS V14.00,2013-05-16 10:41:00,
2013-05-16 06:46:00,55.9,43.5,29.44,NE,45,0.0,1.0,63,0.00,,,0.00,VWS V14.00,2013-05-16 10:46:00,
2013-05-16 06:51:00,56.3,43.5,29.44,NNW,338,0.0,1.0,62,0.00,,,0.00,VWS V14.00,2013-05-16 10:51:00,
2013-05-16 06:56:00,56.7,43.4,29.47,South,180,0.0,1.0,61,0.00,,,0.00,VWS V14.00,2013-05-16 10:56:00,
2013-05-16 07:01:00,57.0,43.7,29.47,SW,225,0.0,1.0,61,0.00,,,0.00,VWS V14.00,2013-05-16 11:01:00,
2013-05-16 07:06:00,57.4,44.1,29.47,SSW,202,0.0,1.0,61,0.00,,,0.00,VWS V14.00,2013-05-16 11:06:00,
2013-05-16 07:11:00,57.7,44.0,29.47,SSW,202,0.0,1.0,60,0.00,,,0.00,VWS V14.00,2013-05-16 11:11:00,
2013-05-16 07:16:00,58.1,44.3,29.47,SW,225,0.0,1.0,60,0.00,,,0.00,VWS V14.00,2013-05-16 11:16:00,
2013-05-16 07:21:00,58.5,44.2,29.47,SSW,202,0.0,1.0,59,0.00,,,0.00,VWS V14.00,2013-05-16 11:21:00,
2013-05-16 07:26:00,59.0,44.7,29.47,SW,225,0.0,1.0,59,0.00,,,0.00,VWS V14.00,2013-05-16 11:26:00,
2013-05-16 07:31:00,59.4,45.0,29.47,South,180,0.0,1.0,59,0.00,,,0.00,VWS V14.00,2013-05-16 11:31:00,
2013-05-16 07:36:00,59.7,44.9,29.47,NW,315,0.0,1.0,58,0.00,,,0.00,VWS V14.00,2013-05-16 11:36:00,
2013-05-16 07:41:00,60.3,45.0,29.47,SW,225,0.0,1.0,57,0.00,,,0.00,VWS V14.00,2013-05-16 11:41:00,
2013-05-16 07:46:00,60.4,44.7,29.47,WSW,248,0.0,1.0,56,0.00,,,0.00,VWS V14.00,2013-05-16 11:46:00,
2013-05-16 07:51:00,60.6,44.4,29.47,NNW,338,0.0,1.0,55,0.00,,,0.00,VWS V14.00,2013-05-16 11:51:00,
2013-05-16 07:56:00,60.6,43.4,29.47,South,180,0.0,1.0,53,0.00,,,0.00,VWS V14.00,2013-05-16 11:56:00,
2013-05-16 08:01:00,60.8,43.6,29.47,NNE,22,0.0,1.0,53,0.00,,,0.00,VWS V14.00,2013-05-16 12:01:00,
2013-05-16 08:06:00,61.2,43.4,29.47,SW,225,0.0,1.0,52,0.00,,,0.00,VWS V14.00,2013-05-16 12:06:00,
2013-05-16 08:11:00,61.2,43.4,29.47,NNW,338,0.0,1.0,52,0.00,,,0.00,VWS V14.00,2013-05-16 12:11:00,
2013-05-16 08:16:00,61.3,43.1,29.47,NW,315,0.0,1.0,51,0.00,,,0.00,VWS V14.00,2013-05-16 12:16:00,
2013-05-16 08:21:00,61.3,43.1,29.47,WSW,248,0.0,1.0,51,0.00,,,0.00,VWS V14.00,2013-05-16 12:21:00,
2013-05-16 08:26:00,61.3,43.1,29.47,East,90,0.0,1.0,51,0.00,,,0.00,VWS V14.00,2013-05-16 12:26:00,
2013-05-16 08:31:00,61.7,43.4,29.47,WSW,248,0.0,1.0,51,0.00,,,0.00,VWS V14.00,2013-05-16 12:31:00,
2013-05-16 08:36:00,61.9,43.1,29.47,SW,225,0.0,1.0,50,0.00,,,0.00,VWS V14.00,2013-05-16 12:36:00,
2013-05-16 08:41:00,62.1,43.2,29.47,WSW,248,0.0,1.0,50,0.00,,,0.00,VWS V14.00,2013-05-16 12:41:00,
2013-05-16 08:46:00,62.2,43.4,29.47,North,0,0.0,1.0,50,0.00,,,0.00,VWS V14.00,2013-05-16 12:46:00,
2013-05-16 08:51:00,62.6,43.7,29.47,SSE,158,0.0,1.0,50,0.00,,,0.00,VWS V14.00,2013-05-16 12:51:00,
2013-05-16 08:56:00,62.6,43.2,29.47,SW,225,0.0,1.0,49,0.00,,,0.00,VWS V14.00,2013-05-16 12:56:00,
2013-05-16 09:01:00,63.1,43.7,29.47,NNW,338,0.0,1.0,49,0.00,,,0.00,VWS V14.00,2013-05-16 13:01:00,
2013-05-16 09:06:00,63.7,44.2,29.47,ENE,68,0.0,1.0,49,0.00,,,0.00,VWS V14.00,2013-05-16 13:06:00,
2013-05-16 09:11:00,64.9,45.3,29.47,SSW,202,0.0,1.0,49,0.00,,,0.00,VWS V14.00,2013-05-16 13:11:00,
2013-05-16 09:16:00,65.8,45.6,29.47,SSW,202,0.0,1.0,48,0.00,,,0.00,VWS V14.00,2013-05-16 13:16:00,
2013-05-16 09:21:00,66.6,45.7,29.47,NNW,338,0.0,1.0,47,0.00,,,0.00,VWS V14.00,2013-05-16 13:21:00,
2013-05-16 09:26:00,67.5,46.5,29.47,WNW,292,0.0,1.0,47,0.00,,,0.00,VWS V14.00,2013-05-16 13:26:00,
2013-05-16 09:31:00,67.8,46.3,29.47,NE,45,0.0,1.0,46,0.00,,,0.00,VWS V14.00,2013-05-16 13:31:00,
2013-05-16 09:36:00,68.5,45.8,29.47,East,90,0.0,1.0,44,0.00,,,0.00,VWS V14.00,2013-05-16 13:36:00,
2013-05-16 09:41:00,68.5,45.8,29.47,NNW,338,6.7,7.7,44,0.00,,,0.00,VWS V14.00,2013-05-16 13:41:00,
2013-05-16 09:46:00,69.1,46.3,29.47,North,0,2.0,3.0,44,0.00,,,0.00,VWS V14.00,2013-05-16 13:46:00,
2013-05-16 09:51:00,69.4,46.6,29.47,SSW,202,0.0,1.0,44,0.00,,,0.00,VWS V14.00,2013-05-16 13:51:00,
2013-05-16 09:56:00,70.2,46.0,29.47,South,180,0.0,1.0,42,0.00,,,0.00,VWS V14.00,2013-05-16 13:56:00,
2013-05-16 10:01:00,70.5,46.3,29.47,South,180,0.0,1.0,42,0.00,,,0.00,VWS V14.00,2013-05-16 14:01:00,
2013-05-16 10:06:00,71.8,46.8,29.47,NNW,338,0.0,1.0,41,0.00,,,0.00,VWS V14.00,2013-05-16 14:06:00,
2013-05-16 10:11:00,72.3,47.3,29.47,SSW,202,0.0,1.0,41,0.00,,,0.00,VWS V14.00,2013-05-16 14:11:00,
2013-05-16 10:16:00,71.8,45.5,29.47,North,0,0.0,1.0,39,0.00,,,0.00,VWS V14.00,2013-05-16 14:16:00,
2013-05-16 10:21:00,71.4,43.8,29.47,South,180,5.1,6.1,37,0.00,,,0.00,VWS V14.00,2013-05-16 14:21:00,
2013-05-16 10:26:00,71.2,44.4,29.47,South,180,0.0,1.0,38,0.00,,,0.00,VWS V14.00,2013-05-16 14:26:00,
2013-05-16 10:31:00,70.9,44.0,29.47,SW,225,0.0,1.0,38,0.00,,,0.00,VWS V14.00,2013-05-16 14:31:00,
2013-05-16 10:36:00,71.1,44.2,29.47,NNW,338,0.0,1.0,38,0.00,,,0.00,VWS V14.00,2013-05-16 14:36:00,
2013-05-16 10:41:00,71.1,44.2,29.47,WSW,248,0.0,1.0,38,0.00,,,0.00,VWS V14.00,2013-05-16 14:41:00,
2013-05-16 10:46:00,72.3,45.3,29.47,NW,315,0.0,2.6,38,0.00,,,0.00,VWS V14.00,2013-05-16 14:46:00,
2013-05-16 10:51:00,72.5,44.8,29.47,WNW,292,2.0,3.0,37,0.00,,,0.00,VWS V14.00,2013-05-16 14:51:00,
2013-05-16 10:56:00,72.5,44.1,29.47,East,90,1.6,2.6,36,0.00,,,0.00,VWS V14.00,2013-05-16 14:56:00,
2013-05-16 11:01:00,72.1,43.0,29.47,South,180,5.1,6.1,35,0.00,,,0.00,VWS V14.00,2013-05-16 15:01:00,
2013-05-16 11:06:00,72.3,43.2,29.47,ESE,112,1.6,2.6,35,0.00,,,0.00,VWS V14.00,2013-05-16 15:06:00,
2013-05-16 11:11:00,72.5,43.3,29.47,SW,225,0.0,1.0,35,0.00,,,0.00,VWS V14.00,2013-05-16 15:11:00,
2013-05-16 11:16:00,73.2,44.0,29.47,SW,225,0.0,1.0,35,0.00,,,0.00,VWS V14.00,2013-05-16 15:16:00,
2013-05-16 11:21:00,73.9,43.8,29.47,SW,225,5.1,6.1,34,0.00,,,0.00,VWS V14.00,2013-05-16 15:21:00,
2013-05-16 11:26:00,74.1,44.0,29.47,SW,225,0.0,4.5,34,0.00,,,0.00,VWS V14.00,2013-05-16 15:26:00,
2013-05-16 11:31:00,74.1,44.0,29.47,North,0,0.0,1.0,34,0.00,,,0.00,VWS V14.00,2013-05-16 15:31:00,
2013-05-16 11:36:00,74.3,44.1,29.47,SW,225,0.0,1.0,34,0.00,,,0.00,VWS V14.00,2013-05-16 15:36:00,
2013-05-16 11:41:00,74.7,43.7,29.47,SW,225,2.0,7.7,33,0.00,,,0.00,VWS V14.00,2013-05-16 15:41:00,
2013-05-16 11:46:00,74.7,43.7,29.47,SSW,202,0.0,1.0,33,0.00,,,0.00,VWS V14.00,2013-05-16 15:46:00,
2013-05-16 11:51:00,75.0,44.0,29.47,SW,225,5.5,6.5,33,0.00,,,0.00,VWS V14.00,2013-05-16 15:51:00,
2013-05-16 11:56:00,74.8,43.8,29.47,South,180,0.0,1.0,33,0.00,,,0.00,VWS V14.00,2013-05-16 15:56:00,
2013-05-16 12:01:00,75.0,43.2,29.47,North,0,0.0,1.0,32,0.00,,,0.00,VWS V14.00,2013-05-16 16:01:00,
2013-05-16 12:06:00,75.4,43.5,29.47,North,0,0.0,1.0,32,0.00,,,0.00,VWS V14.00,2013-05-16 16:06:00,
2013-05-16 12:11:00,75.2,42.5,29.44,NE,45,2.3,3.3,31,0.00,,,0.00,VWS V14.00,2013-05-16 16:11:00,
2013-05-16 12:16:00,75.0,43.2,29.44,NNE,22,0.0,1.0,32,0.00,,,0.00,VWS V14.00,2013-05-16 16:16:00,
2013-05-16 12:21:00,75.2,42.5,29.44,NE,45,2.3,3.3,31,0.00,,,0.00,VWS V14.00,2013-05-16 16:21:00,
2013-05-16 12:26:00,74.8,42.2,29.44,NW,315,5.5,6.5,31,0.00,,,0.00,VWS V14.00,2013-05-16 16:26:00,
2013-05-16 12:31:00,74.7,42.9,29.44,North,0,2.0,3.0,32,0.00,,,0.00,VWS V14.00,2013-05-16 16:31:00,
2013-05-16 12:36:00,74.7,42.0,29.44,NNW,338,0.0,1.0,31,0.00,,,0.00,VWS V14.00,2013-05-16 16:36:00,
2013-05-16 12:41:00,74.3,41.7,29.44,North,0,2.0,3.0,31,0.00,,,0.00,VWS V14.00,2013-05-16 16:41:00,
2013-05-16 12:46:00,75.0,43.2,29.44,SSE,158,0.0,1.0,32,0.00,,,0.00,VWS V14.00,2013-05-16 16:46:00,
2013-05-16 12:51:00,75.6,42.8,29.44,WSW,248,0.0,1.0,31,0.00,,,0.00,VWS V14.00,2013-05-16 16:51:00,
2013-05-16 12:56:00,75.9,43.1,29.44,NW,315,6.3,7.3,31,0.00,,,0.00,VWS V14.00,2013-05-16 16:56:00,
2013-05-16 13:01:00,75.9,41.4,29.44,SW,225,0.0,1.0,29,0.00,,,0.00,VWS V14.00,2013-05-16 17:01:00,
2013-05-16 13:06:00,75.9,43.1,29.44,WSW,248,0.0,1.0,31,0.00,,,0.00,VWS V14.00,2013-05-16 17:06:00,
2013-05-16 13:11:00,75.9,42.3,29.44,NNE,22,2.7,3.7,30,0.00,,,0.00,VWS V14.00,2013-05-16 17:11:00,
2013-05-16 13:16:00,76.3,43.5,29.44,NW,315,0.0,1.0,31,0.00,,,0.00,VWS V14.00,2013-05-16 17:16:00,
2013-05-16 13:21:00,76.5,43.6,29.44,South,180,0.0,1.0,31,0.00,,,0.00,VWS V14.00,2013-05-16 17:21:00,
2013-05-16 13:26:00,76.8,43.1,29.44,SSW,202,2.0,3.0,30,0.00,,,0.00,VWS V14.00,2013-05-16 17:26:00,
2013-05-16 13:31:00,76.8,43.1,29.44,NNE,22,0.0,1.0,30,0.00,,,0.00,VWS V14.00,2013-05-16 17:31:00,
2013-05-16 13:36:00,76.8,43.1,29.44,North,0,0.0,1.0,30,0.00,,,0.00,VWS V14.00,2013-05-16 17:36:00,
2013-05-16 13:41:00,77.0,43.2,29.44,NE,45,0.0,3.3,30,0.00,,,0.00,VWS V14.00,2013-05-16 17:41:00,
2013-05-16 13:46:00,76.8,43.1,29.44,WSW,248,2.0,3.0,30,0.00,,,0.00,VWS V14.00,2013-05-16 17:46:00,
2013-05-16 13:51:00,76.6,42.0,29.44,SW,225,2.7,3.7,29,0.00,,,0.00,VWS V14.00,2013-05-16 17:51:00,
2013-05-16 13:56:00,76.8,42.2,29.44,South,180,0.0,1.0,29,0.00,,,0.00,VWS V14.00,2013-05-16 17:56:00,
2013-05-16 14:01:00,77.0,41.4,29.44,South,180,5.9,6.9,28,0.00,,,0.00,VWS V14.00,2013-05-16 18:01:00,
2013-05-16 14:06:00,77.0,41.4,29.44,NW,315,5.9,6.9,28,0.00,,,0.00,VWS V14.00,2013-05-16 18:06:00,
2013-05-16 14:11:00,77.4,41.7,29.44,NNW,338,3.9,4.9,28,0.00,,,0.00,VWS V14.00,2013-05-16 18:11:00,
2013-05-16 14:16:00,77.4,41.7,29.44,North,0,0.0,1.0,28,0.00,,,0.00,VWS V14.00,2013-05-16 18:16:00,
2013-05-16 14:21:00,77.5,41.9,29.44,NW,315,0.0,13.9,28,0.00,,,0.00,VWS V14.00,2013-05-16 18:21:00,
2013-05-16 14:26:00,77.5,41.0,29.41,SE,135,0.0,1.0,27,0.00,,,0.00,VWS V14.00,2013-05-16 18:26:00,
2013-05-16 14:31:00,77.5,41.9,29.41,WSW,248,0.0,1.0,28,0.00,,,0.00,VWS V14.00,2013-05-16 18:31:00,
2013-05-16 14:36:00,77.5,41.0,29.41,NW,315,0.0,2.6,27,0.00,,,0.00,VWS V14.00,2013-05-16 18:36:00,
2013-05-16 14:41:00,77.7,41.1,29.41,NW,315,0.0,1.0,27,0.00,,,0.00,VWS V14.00,2013-05-16 18:41:00,
2013-05-16 14:46:00,77.7,40.1,29.41,SSW,202,0.0,2.6,26,0.00,,,0.00,VWS V14.00,2013-05-16 18:46:00,
2013-05-16 14:51:00,77.7,42.0,29.41,South,180,0.0,1.0,28,0.00,,,0.00,VWS V14.00,2013-05-16 18:51:00,
2013-05-16 14:56:00,77.9,42.2,29.41,North,0,7.4,8.4,28,0.00,,,0.00,VWS V14.00,2013-05-16 18:56:00,
2013-05-16 15:01:00,77.7,40.1,29.41,North,0,0.0,4.5,26,0.00,,,0.00,VWS V14.00,2013-05-16 19:01:00,
2013-05-16 15:06:00,77.7,41.1,29.41,SW,225,0.0,1.0,27,0.00,,,0.00,VWS V14.00,2013-05-16 19:06:00,
2013-05-16 15:11:00,77.7,41.1,29.41,SW,225,0.0,1.0,27,0.00,,,0.00,VWS V14.00,2013-05-16 19:11:00,
2013-05-16 15:16:00,78.1,41.4,29.41,NNW,338,0.0,1.0,27,0.00,,,0.00,VWS V14.00,2013-05-16 19:16:00,
2013-05-16 15:21:00,78.1,41.4,29.41,North,0,2.7,4.5,27,0.00,,,0.00,VWS V14.00,2013-05-16 19:21:00,
2013-05-16 15:26:00,77.9,40.3,29.41,NW,315,1.6,2.6,26,0.00,,,0.00,VWS V14.00,2013-05-16 19:26:00,
2013-05-16 15:31:00,77.9,40.3,29.41,North,0,2.7,3.7,26,0.00,,,0.00,VWS V14.00,2013-05-16 19:31:00,
2013-05-16 15:36:00,77.9,40.3,29.41,South,180,4.7,5.7,26,0.00,,,0.00,VWS V14.00,2013-05-16 19:36:00,
2013-05-16 15:41:00,78.1,40.4,29.41,South,180,0.0,3.0,26,0.00,,,0.00,VWS V14.00,2013-05-16 19:41:00,
2013-05-16 15:46:00,78.1,40.4,29.41,NNE,22,0.0,2.6,26,0.00,,,0.00,VWS V14.00,2013-05-16 19:46:00,
2013-05-16 15:51:00,77.9,40.3,29.41,East,90,5.9,13.5,26,0.00,,,0.00,VWS V14.00,2013-05-16 19:51:00,
2013-05-16 15:55:00,77.9,39.3,29.41,NE,45,0.0,1.0,25,0.00,,,0.00,VWS V14.00,2013-05-16 19:55:00,
2013-05-16 16:00:00,77.7,40.1,29.41,South,180,0.0,1.0,26,0.00,,,0.00,VWS V14.00,2013-05-16 20:00:00,
2013-05-16 16:05:00,77.9,40.3,29.41,SW,225,2.0,3.0,26,0.00,,,0.00,VWS V14.00,2013-05-16 20:05:00,
2013-05-16 16:10:00,77.9,40.3,29.41,ENE,68,0.0,1.0,26,0.00,,,0.00,VWS V14.00,2013-05-16 20:10:00,
2013-05-16 16:15:00,77.9,40.3,29.41,West,270,0.0,8.0,26,0.00,,,0.00,VWS V14.00,2013-05-16 20:15:00,
2013-05-16 16:20:00,77.9,40.3,29.41,SE,135,0.0,1.0,26,0.00,,,0.00,VWS V14.00,2013-05-16 20:20:00,
2013-05-16 16:25:00,77.9,39.3,29.41,ENE,68,0.0,1.0,25,0.00,,,0.00,VWS V14.00,2013-05-16 20:25:00,
2013-05-16 16:30:00,77.9,39.3,29.41,South,180,0.0,1.0,25,0.00,,,0.00,VWS V14.00,2013-05-16 20:30:00,
2013-05-16 16:35:00,77.7,39.1,29.41,SW,225,0.0,1.0,25,0.00,,,0.00,VWS V14.00,2013-05-16 20:35:00,
2013-05-16 16:40:00,77.9,39.3,29.41,WNW,292,0.0,2.6,25,0.00,,,0.00,VWS V14.00,2013-05-16 20:40:00,
2013-05-16 16:45:00,77.7,39.1,29.41,NE,45,0.0,1.0,25,0.00,,,0.00,VWS V14.00,2013-05-16 20:45:00,
2013-05-16 16:50:00,77.5,39.0,29.41,West,270,0.0,1.0,25,0.00,,,0.00,VWS V14.00,2013-05-16 20:50:00,
2013-05-16 16:55:00,77.5,39.0,29.41,ESE,112,0.0,1.0,25,0.00,,,0.00,VWS V14.00,2013-05-16 20:55:00,
2013-05-16 17:00:00,77.5,39.0,29.41,NE,45,0.0,1.0,25,0.00,,,0.00,VWS V14.00,2013-05-16 21:00:00,
2013-05-16 17:05:00,77.5,39.0,29.41,WSW,248,4.3,5.3,25,0.00,,,0.00,VWS V14.00,2013-05-16 21:05:00,
2013-05-16 17:10:00,77.5,39.0,29.41,SSW,202,2.7,3.7,25,0.00,,,0.00,VWS V14.00,2013-05-16 21:10:00,
2013-05-16 17:15:00,77.4,38.8,29.41,North,0,0.0,1.0,25,0.00,,,0.00,VWS V14.00,2013-05-16 21:15:00,
2013-05-16 17:20:00,77.4,37.8,29.41,NE,45,1.6,2.6,24,0.00,,,0.00,VWS V14.00,2013-05-16 21:20:00,
2013-05-16 17:25:00,77.2,38.7,29.41,SSE,158,2.0,3.0,25,0.00,,,0.00,VWS V14.00,2013-05-16 21:25:00,
2013-05-16 17:30:00,77.2,38.7,29.41,WSW,248,0.0,1.0,25,0.00,,,0.00,VWS V14.00,2013-05-16 21:30:00,
2013-05-16 17:35:00,77.0,38.5,29.41,South,180,0.0,1.0,25,0.00,,,0.00,VWS V14.00,2013-05-16 21:35:00,
2013-05-16 17:40:00,76.8,38.4,29.41,ESE,112,0.0,1.0,25,0.00,,,0.00,VWS V14.00,2013-05-16 21:40:00,
2013-05-16 17:45:00,76.8,38.4,29.41,SW,225,0.0,1.0,25,0.00,,,0.00,VWS V14.00,2013-05-16 21:45:00,
2013-05-16 17:50:00,76.6,38.2,29.41,NW,315,0.0,1.0,25,0.00,,,0.00,VWS V14.00,2013-05-16 21:50:00,
2013-05-16 17:55:00,76.5,38.1,29.41,SW,225,0.0,1.0,25,0.00,,,0.00,VWS V14.00,2013-05-16 21:55:00,
2013-05-16 18:00:00,76.3,37.9,29.41,NE,45,0.0,1.0,25,0.00,,,0.00,VWS V14.00,2013-05-16 22:00:00,
2013-05-16 18:05:00,76.5,38.1,29.41,ESE,112,2.0,3.0,25,0.00,,,0.00,VWS V14.00,2013-05-16 22:05:00,
2013-05-16 18:10:00,76.5,38.1,29.41,WSW,248,0.0,1.0,25,0.00,,,0.00,VWS V14.00,2013-05-16 22:10:00,
2013-05-16 18:15:00,76.3,37.9,29.41,WSW,248,3.5,4.5,25,0.00,,,0.00,VWS V14.00,2013-05-16 22:15:00,
2013-05-16 18:20:00,76.3,37.9,29.41,ENE,68,2.7,3.7,25,0.00,,,0.00,VWS V14.00,2013-05-16 22:20:00,
2013-05-16 18:25:00,76.1,37.8,29.41,SE,135,5.5,6.5,25,0.00,,,0.00,VWS V14.00,2013-05-16 22:25:00,
2013-05-16 18:30:00,76.1,37.8,29.41,South,180,0.0,1.0,25,0.00,,,0.00,VWS V14.00,2013-05-16 22:30:00,
2013-05-16 18:35:00,75.7,37.5,29.41,SW,225,0.0,1.0,25,0.00,,,0.00,VWS V14.00,2013-05-16 22:35:00,
2013-05-16 18:40:00,75.6,37.3,29.41,NE,45,0.0,1.0,25,0.00,,,0.00,VWS V14.00,2013-05-16 22:40:00,
2013-05-16 18:45:00,75.4,37.2,29.41,NW,315,0.0,1.0,25,0.00,,,0.00,VWS V14.00,2013-05-16 22:45:00,
2013-05-16 18:50:00,75.4,37.2,29.41,WSW,248,0.0,1.0,25,0.00,,,0.00,VWS V14.00,2013-05-16 22:50:00,
2013-05-16 18:55:00,75.2,37.0,29.41,NNW,338,0.0,1.0,25,0.00,,,0.00,VWS V14.00,2013-05-16 22:55:00,
2013-05-16 19:00:00,75.0,36.8,29.41,SSW,202,0.0,1.0,25,0.00,,,0.00,VWS V14.00,2013-05-16 23:00:00,
2013-05-16 19:05:00,74.8,36.7,29.41,NW,315,0.0,1.0,25,0.00,,,0.00,VWS V14.00,2013-05-16 23:05:00,
2013-05-16 19:10:00,74.8,36.7,29.44,SW,225,0.0,3.3,25,0.00,,,0.00,VWS V14.00,2013-05-16 23:10:00,
2013-05-16 19:15:00,74.7,36.5,29.44,NE,45,0.0,1.0,25,0.00,,,0.00,VWS V14.00,2013-05-16 23:15:00,
2013-05-16 19:20:00,74.5,36.4,29.44,NNE,22,0.0,1.0,25,0.00,,,0.00,VWS V14.00,2013-05-16 23:20:00,
2013-05-16 19:25:00,74.1,36.1,29.44,South,180,0.0,1.0,25,0.00,,,0.00,VWS V14.00,2013-05-16 23:25:00,
2013-05-16 19:30:00,73.9,35.9,29.44,SSW,202,0.0,1.0,25,0.00,,,0.00,VWS V14.00,2013-05-16 23:30:00,
2013-05-16 19:35:00,73.6,35.6,29.44,NNW,338,0.0,1.0,25,0.00,,,0.00,VWS V14.00,2013-05-16 23:35:00,
2013-05-16 19:40:00,73.4,35.5,29.44,North,0,0.0,1.0,25,0.00,,,0.00,VWS V14.00,2013-05-16 23:40:00,
2013-05-16 19:45:00,73.2,35.3,29.44,NE,45,0.0,1.0,25,0.00,,,0.00,VWS V14.00,2013-05-16 23:45:00,
2013-05-16 19:50:00,73.2,35.3,29.44,NW,315,0.0,1.0,25,0.00,,,0.00,VWS V14.00,2013-05-16 23:50:00,
2013-05-16 19:55:00,72.9,35.0,29.44,SSW,202,0.0,1.0,25,0.00,,,0.00,VWS V14.00,2013-05-16 23:55:00,
2013-05-16 20:00:00,72.5,35.7,29.44,NW,315,0.0,1.0,26,0.00,,,0.00,VWS V14.00,2013-05-17 00:00:00,
2013-05-16 20:05:00,72.5,35.7,29.44,NW,315,0.0,1.0,26,0.00,,,0.00,VWS V14.00,2013-05-17 00:05:00,
2013-05-16 20:10:00,72.3,35.5,29.44,South,180,0.0,1.0,26,0.00,,,0.00,VWS V14.00,2013-05-17 00:10:00,
2013-05-16 20:15:00,72.0,35.2,29.44,NW,315,0.0,1.0,26,0.00,,,0.00,VWS V14.00,2013-05-17 00:15:00,
2013-05-16 20:20:00,71.8,35.1,29.44,South,180,0.0,1.0,26,0.00,,,0.00,VWS V14.00,2013-05-17 00:20:00,
2013-05-16 20:25:00,71.6,34.9,29.44,South,180,0.0,1.0,26,0.00,,,0.00,VWS V14.00,2013-05-17 00:25:00,
2013-05-16 20:30:00,71.4,34.8,29.44,SSW,202,0.0,1.0,26,0.00,,,0.00,VWS V14.00,2013-05-17 00:30:00,
2013-05-16 20:35:00,71.2,34.6,29.44,ENE,68,0.0,1.0,26,0.00,,,0.00,VWS V14.00,2013-05-17 00:35:00,
2013-05-16 20:40:00,71.1,34.5,29.47,West,270,0.0,1.0,26,0.00,,,0.00,VWS V14.00,2013-05-17 00:40:00,
2013-05-16 20:45:00,71.1,34.5,29.47,ESE,112,0.0,1.0,26,0.00,,,0.00,VWS V14.00,2013-05-17 00:45:00,
2013-05-16 20:50:00,70.9,34.3,29.47,WSW,248,0.0,1.0,26,0.00,,,0.00,VWS V14.00,2013-05-17 00:50:00,
2013-05-16 20:55:00,70.7,34.2,29.50,WSW,248,0.0,1.0,26,0.00,,,0.00,VWS V14.00,2013-05-17 00:55:00,
2013-05-16 21:00:00,70.3,33.9,29.50,NNW,338,0.0,1.0,26,0.00,,,0.00,VWS V14.00,2013-05-17 01:00:00,
2013-05-16 21:05:00,70.3,33.9,29.50,NW,315,0.0,1.0,26,0.00,,,0.00,VWS V14.00,2013-05-17 01:05:00,
2013-05-16 21:10:00,70.3,33.9,29.50,South,180,0.0,1.0,26,0.00,,,0.00,VWS V14.00,2013-05-17 01:10:00,
2013-05-16 21:15:00,70.3,33.9,29.50,SW,225,0.0,2.6,26,0.00,,,0.00,VWS V14.00,2013-05-17 01:15:00,
2013-05-16 21:20:00,70.5,34.0,29.50,WSW,248,0.0,1.0,26,0.00,,,0.00,VWS V14.00,2013-05-17 01:20:00,
2013-05-16 21:25:00,70.5,33.0,29.50,NE,45,0.0,1.0,25,0.00,,,0.00,VWS V14.00,2013-05-17 01:25:00,
2013-05-16 21:30:00,70.3,32.9,29.50,WSW,248,0.0,1.0,25,0.00,,,0.00,VWS V14.00,2013-05-17 01:30:00,
2013-05-16 21:35:00,70.2,32.7,29.50,WSW,248,0.0,1.0,25,0.00,,,0.00,VWS V14.00,2013-05-17 01:35:00,
2013-05-16 21:40:00,70.0,32.6,29.53,North,0,0.0,1.0,25,0.00,,,0.00,VWS V14.00,2013-05-17 01:40:00,
2013-05-16 21:45:00,70.0,32.6,29.53,NW,315,0.0,1.0,25,0.00,,,0.00,VWS V14.00,2013-05-17 01:45:00,
2013-05-16 21:50:00,69.6,33.2,29.53,SW,225,0.0,1.0,26,0.00,,,0.00,VWS V14.00,2013-05-17 01:50:00,
2013-05-16 21:55:00,69.6,32.3,29.53,WSW,248,0.0,1.0,25,0.00,,,0.00,VWS V14.00,2013-05-17 01:55:00,
2013-05-16 22:00:00,69.4,33.1,29.53,WSW,248,0.0,1.0,26,0.00,,,0.00,VWS V14.00,2013-05-17 02:00:00,
2013-05-16 22:05:00,69.6,33.2,29.53,East,90,0.0,1.0,26,0.00,,,0.00,VWS V14.00,2013-05-17 02:05:00,
2013-05-16 22:10:00,69.3,32.0,29.53,West,270,2.0,3.0,25,0.00,,,0.00,VWS V14.00,2013-05-17 02:10:00,
2013-05-16 22:15:00,69.3,32.0,29.53,NW,315,0.0,1.0,25,0.00,,,0.00,VWS V14.00,2013-05-17 02:15:00,
2013-05-16 22:20:00,68.9,31.7,29.53,SW,225,0.0,1.0,25,0.00,,,0.00,VWS V14.00,2013-05-17 02:20:00,
2013-05-16 22:25:00,68.7,31.5,29.53,South,180,0.0,1.0,25,0.00,,,0.00,VWS V14.00,2013-05-17 02:25:00,
2013-05-16 22:30:00,68.4,31.2,29.53,SW,225,0.0,1.0,25,0.00,,,0.00,VWS V14.00,2013-05-17 02:30:00,
2013-05-16 22:35:00,68.2,31.0,29.53,South,180,0.0,1.0,25,0.00,,,0.00,VWS V14.00,2013-05-17 02:35:00,
2013-05-16 22:40:00,68.0,31.9,29.53,WSW,248,0.0,1.0,26,0.00,,,0.00,VWS V14.00,2013-05-17 02:40:00,
2013-05-16 22:45:00,67.8,31.7,29.53,NNE,22,0.0,1.0,26,0.00,,,0.00,VWS V14.00,2013-05-17 02:45:00,
2013-05-16 22:50:00,67.5,31.4,29.53,SW,225,0.0,1.0,26,0.00,,,0.00,VWS V14.00,2013-05-17 02:50:00,
2013-05-16 22:55:00,67.3,31.2,29.56,SSW,202,0.0,1.0,26,0.00,,,0.00,VWS V14.00,2013-05-17 02:55:00,
2013-05-16 23:00:00,67.1,31.1,29.56,SE,135,0.0,1.0,26,0.00,,,0.00,VWS V14.00,2013-05-17 03:00:00,
2013-05-16 23:05:00,67.3,31.2,29.56,WSW,248,0.0,1.0,26,0.00,,,0.00,VWS V14.00,2013-05-17 03:05:00,
2013-05-16 23:10:00,66.9,31.0,29.56,SSW,202,0.0,1.0,26,0.00,,,0.00,VWS V14.00,2013-05-17 03:10:00,
2013-05-16 23:15:00,66.9,31.0,29.56,WSW,248,0.0,1.0,26,0.00,,,0.00,VWS V14.00,2013-05-17 03:15:00,
2013-05-16 23:20:00,66.7,30.8,29.56,SSW,202,0.0,1.0,26,0.00,,,0.00,VWS V14.00,2013-05-17 03:20:00,
2013-05-16 23:25:00,66.6,30.6,29.56,WSW,248,0.0,1.0,26,0.00,,,0.00,VWS V14.00,2013-05-17 03:25:00,
2013-05-16 23:30:00,66.4,30.5,29.56,NW,315,0.0,1.0,26,0.00,,,0.00,VWS V14.00,2013-05-17 03:30:00,
2013-05-16 23:35:00,66.2,30.3,29.56,NNW,338,0.0,1.0,26,0.00,,,0.00,VWS V14.00,2013-05-17 03:35:00,
2013-05-16 23:40:00,66.0,30.2,29.56,NE,45,0.0,1.0,26,0.00,,,0.00,VWS V14.00,2013-05-17 03:40:00,
2013-05-16 23:45:00,66.2,30.3,29.56,NE,45,0.0,1.0,26,0.00,,,0.00,VWS V14.00,2013-05-17 03:45:00,
2013-05-16 23:50:00,66.2,30.3,29.56,North,0,5.9,6.9,26,0.00,,,0.00,VWS V14.00,2013-05-17 03:50:00,
2013-05-16 23:55:00,66.0,31.1,29.59,WNW,292,0.0,1.0,27,0.00,,,0.00,VWS V14.00,2013-05-17 03:55:00,